Tracking 19709 objects as of 18-Jun-2019
HD Live streaming from Space Station
objects crossing your sky now

CZ-2D DEB

Track CZ-2D DEB now!
10-day predictions


NORAD ID: 38178
Int'l Code: 2011-068F
Perigee: 699.5 km
Apogee: 893.2 km
Inclination: 98.6 °
Period: 100.6 minutes
Semi major axis: 7167 km
RCS: 0.0014 m2 (small)
Launch date: November 20, 2011
Source: People's Republic of China (PRC)
Launch site: Jiuquan Satellite Launch Center, China (JSC)

Note: This is SATELLITE DEBRIS
aabbcc
Your satellite tracking list
Your tracking list is empty




NASA's NSSDC Master Catalog

Two Line Element Set (TLE):
1 38178U 11068F   19168.90108576 +.00000072 +00000-0 +40734-4 0  9995
2 38178 098.6035 142.7549 0135130 030.6324 022.7960 14.30744833391852
Source of the keplerian elements: AFSPC